Theta_e
350 350 350 349 349 351 350 350 351 353 355 356 354 355 356 356 357 359 359 358 357 357 357 357 354 350 346 343 342 342 343 344 345 343 344 345 345 350 351 347 344 345 345 344 347 347 343 343 347 347 346 344 342 341 339 336 335 332 328 328 333 335 336
350 348 347 347 348 350 351 350 350 353 355 356 355 355 355 356 356 357 359 358 358 357 357 356 354 349 345 343 343 343 344 345 345 344 344 344 344 347 348 346 344 344 347 347 348 346 343 344 347 346 343 342 342 339 336 336 333 327 324 323 324 328 329
348 348 346 346 347 349 350 351 350 353 355 355 356 355 356 356 355 356 357 358 358 358 357 357 353 347 344 343 343 344 345 346 345 345 344 344 343 344 345 347 349 348 348 350 349 346 345 346 347 345 343 340 339 337 335 336 332 326 323 320 320 321 321
347 346 347 345 346 348 351 351 350 353 355 356 356 356 356 355 355 355 356 357 357 357 358 359 355 349 345 344 343 343 346 347 345 345 343 343 343 342 342 345 350 352 352 351 349 346 346 347 346 346 344 341 338 336 335 335 332 327 322 320 319 319 318
347 347 347 344 345 349 352 352 352 355 357 356 357 356 356 356 355 355 355 355 357 357 357 360 358 352 346 344 342 342 345 347 347 345 343 343 343 342 341 342 347 351 352 350 349 346 345 346 346 346 345 342 339 336 335 333 331 329 324 319 319 319 317
348 347 346 345 345 349 351 352 352 355 358 358 357 357 357 357 356 355 355 355 357 358 357 360 360 355 348 344 342 342 345 348 348 346 343 343 343 341 341 342 344 347 348 349 349 347 345 345 345 346 345 343 341 336 334 332 330 330 327 322 319 317 318
348 347 345 346 347 348 349 351 352 353 357 359 359 359 358 358 357 355 356 356 358 360 360 361 361 357 348 341 341 343 346 349 350 348 344 342 343 342 343 343 343 343 344 347 348 346 345 345 344 344 344 344 342 337 333 331 327 329 331 326 320 316 319
347 347 345 346 347 347 349 351 352 355 356 357 358 359 359 358 357 355 355 358 359 362 363 363 360 356 347 340 341 345 348 351 352 350 346 342 342 344 345 344 342 340 338 340 343 344 344 344 343 343 343 342 342 339 334 330 326 328 331 329 323 319 321
343 345 344 345 345 347 348 349 350 354 354 354 357 359 359 358 357 356 355 357 359 360 362 364 362 356 347 341 342 345 349 354 356 351 345 342 343 343 344 345 343 341 338 337 338 340 340 341 340 340 341 341 340 339 336 331 326 326 329 328 325 322 323
344 344 344 346 346 346 347 348 349 351 351 351 354 358 359 359 358 356 356 357 357 357 361 363 363 358 348 341 344 349 351 354 358 354 346 342 342 340 340 343 343 341 340 338 338 339 338 337 338 338 340 340 339 339 338 332 326 324 326 326 323 323 325
346 347 348 348 348 348 347 349 351 352 351 351 355 358 358 359 359 358 356 355 355 355 359 361 360 359 353 345 349 354 353 353 355 353 346 343 341 337 338 342 344 343 339 337 339 339 337 337 338 338 339 340 339 339 337 335 329 324 325 325 322 322 325
344 347 350 350 351 348 347 348 349 352 353 355 357 358 357 359 359 357 355 355 354 353 356 358 357 358 357 354 355 357 356 354 351 348 345 343 342 339 339 343 348 347 341 335 336 338 337 338 338 338 339 340 340 338 337 336 332 326 325 325 322 321 324
347 348 348 351 353 350 348 347 347 349 354 358 360 358 358 359 358 357 355 354 353 352 353 354 353 355 357 359 360 359 357 352 345 343 343 342 343 343 343 345 348 350 345 337 334 336 337 338 339 338 340 342 341 340 340 339 335 329 326 325 322 321 322
349 353 353 354 355 352 351 350 349 351 355 359 361 359 357 357 357 357 355 353 351 351 351 351 352 353 355 359 362 360 358 351 342 340 342 343 345 345 345 346 347 349 348 343 339 338 338 340 341 340 341 343 344 343 342 341 337 331 328 326 324 323 323
346 354 360 361 357 354 352 351 352 355 357 360 362 361 358 357 357 357 353 352 349 348 350 350 351 351 352 356 361 362 359 355 350 346 343 344 347 346 344 344 345 348 349 347 344 343 344 346 347 346 345 346 346 345 344 343 339 335 331 328 325 323 323
342 346 355 361 358 354 350 347 349 355 358 360 361 361 360 357 357 358 353 350 347 347 348 350 350 350 351 353 358 361 360 359 358 356 350 347 347 346 345 344 344 348 349 348 347 348 349 351 352 352 351 350 349 347 346 344 342 339 335 331 327 324 323
339 338 347 357 357 354 351 347 346 352 358 361 360 361 361 358 358 358 354 350 348 346 346 348 349 350 349 351 355 359 360 360 360 360 357 352 349 348 349 349 348 349 351 351 351 352 352 353 354 354 353 352 350 348 347 345 343 343 338 335 331 326 323
337 336 345 355 355 355 354 351 349 352 356 358 359 360 361 361 360 360 358 353 348 346 346 347 350 349 349 351 353 356 360 361 361 362 361 358 355 354 354 354 354 352 353 353 353 352 353 353 353 353 353 352 351 349 349 347 345 344 341 337 334 329 326
337 335 342 348 353 356 359 357 354 353 353 354 356 360 361 363 362 362 361 356 351 348 347 347 350 351 350 351 353 356 360 361 362 363 364 363 361 359 358 356 355 355 355 355 355 354 354 354 354 353 352 351 351 350 350 349 347 346 343 340 338 332 329
337 336 336 339 347 357 361 362 359 356 354 354 356 362 365 365 364 365 363 361 356 351 349 349 350 352 352 351 354 356 360 361 364 365 366 365 364 362 360 357 356 356 356 357 357 356 357 356 354 354 353 351 351 350 350 349 348 346 344 343 340 334 331
337 338 337 333 340 353 358 360 364 364 360 358 361 365 367 366 366 366 365 363 361 358 355 353 351 353 354 354 356 358 360 364 366 366 367 366 364 363 361 359 358 358 357 357 357 357 357 355 354 354 353 352 351 350 349 349 348 347 345 344 342 336 331
336 335 337 335 336 347 352 353 359 365 363 360 362 365 366 366 366 368 367 365 363 362 361 357 354 357 358 358 360 362 364 367 368 369 368 366 364 363 362 360 359 357 356 357 357 357 356 355 354 353 352 352 351 350 349 348 348 347 346 344 343 337 330
334 333 336 336 333 341 347 346 350 358 361 362 362 364 365 367 368 368 367 365 363 363 363 360 358 360 362 363 364 365 367 369 369 368 367 365 364 363 361 359 356 356 356 356 356 356 355 354 353 353 351 350 349 349 349 348 348 348 346 344 342 337 330
332 333 333 335 335 341 345 342 344 350 354 358 361 363 366 368 369 369 366 365 365 364 364 363 362 363 366 367 367 367 369 369 369 368 366 364 362 360 358 356 354 354 354 353 352 353 353 353 353 352 352 350 348 348 348 348 348 347 345 343 341 337 332
330 331 331 331 335 343 344 341 341 347 352 358 360 363 367 368 369 368 365 365 366 365 364 366 366 367 368 369 370 369 369 369 367 365 362 361 361 358 355 352 350 348 345 342 343 344 347 351 353 352 351 350 348 348 347 347 347 346 343 342 340 338 335
336 335 332 330 334 339 342 342 345 352 360 360 356 359 366 367 368 367 364 365 366 366 366 366 368 368 369 369 370 369 367 366 363 359 358 359 359 355 350 343 337 335 331 334 335 332 336 349 353 351 350 349 348 347 346 345 345 344 342 340 339 338 333
344 343 333 330 334 340 343 347 352 360 365 360 352 358 367 367 367 365 364 364 366 367 367 368 368 369 368 368 369 368 367 365 361 358 358 356 352 345 338 333 333 336 336 338 338 332 336 347 350 349 348 347 345 346 345 344 343 342 340 338 337 334 328
344 348 341 334 336 338 342 352 359 363 365 362 359 362 367 367 365 365 364 366 369 369 369 369 369 368 367 367 368 366 364 361 359 356 353 346 338 333 332 332 334 336 338 341 341 339 343 347 346 345 344 344 343 343 342 341 340 338 336 335 332 328 323
342 347 347 347 347 343 343 353 362 363 363 363 364 365 366 366 367 366 366 367 369 371 370 369 368 367 366 365 364 361 360 360 358 353 346 339 335 336 336 335 334 336 341 344 345 345 346 346 344 343 343 342 341 341 339 338 337 335 334 332 329 325 323
349 347 348 352 360 358 355 358 362 362 361 362 364 366 366 368 367 367 367 369 369 370 370 369 367 367 365 363 361 360 359 358 354 349 345 341 340 341 344 344 344 346 348 349 347 346 346 345 343 342 341 340 339 338 337 336 335 334 332 330 327 325 325
357 357 354 353 360 363 363 362 361 359 361 363 365 365 367 367 367 367 368 368 368 369 369 367 365 363 362 361 360 358 356 353 349 349 349 347 345 347 349 348 348 348 348 348 347 346 344 342 340 339 338 337 336 336 336 336 335 333 331 329 328 328 327
358 359 356 353 357 360 360 359 357 358 362 365 365 366 367 367 366 367 369 369 369 368 366 364 363 362 360 358 355 351 347 345 345 349 351 349 348 349 350 349 349 347 345 344 343 342 340 338 337 336 336 335 335 335 335 335 335 334 332 330 329 327 325
355 355 354 355 359 360 359 358 360 364 368 369 368 367 367 366 367 368 368 367 366 365 363 363 361 359 356 352 346 343 342 341 342 345 348 347 347 346 346 346 346 344 342 340 339 339 338 337 336 336 336 336 336 336 335 335 336 335 333 330 328 325 323
354 355 355 355 357 359 361 362 363 366 368 368 368 367 366 366 367 367 365 363 363 363 363 360 355 351 349 346 343 342 343 343 341 342 343 343 343 342 341 340 340 340 340 339 338 339 338 338 337 337 337 337 337 336 336 336 335 333 331 328 325 322 322
354 355 356 356 356 357 359 360 360 362 364 364 364 366 365 363 363 362 361 361 361 360 356 349 344 343 344 345 345 345 344 343 342 340 339 339 340 339 337 337 339 339 339 339 339 339 338 338 337 337 337 336 336 336 335 334 331 329 328 327 325 324 325
351 353 354 355 356 355 356 355 355 356 356 357 359 360 359 359 359 360 359 356 353 347 340 337 339 343 345 346 346 344 342 341 340 340 339 339 339 338 338 338 339 339 338 339 339 339 338 338 338 337 336 336 336 336 335 333 333 332 331 331 329 328 328
349 350 351 352 353 353 352 352 353 354 354 354 354 354 355 358 358 357 352 346 340 336 334 335 340 343 345 346 345 342 341 341 341 341 339 339 339 338 338 338 338 338 337 338 338 338 337 338 337 337 336 335 335 335 334 334 335 334 331 330 328 328 328
345 348 350 350 351 350 349 349 349 349 350 351 351 353 355 356 356 355 350 342 337 337 337 338 341 344 346 346 344 341 341 342 341 340 339 338 338 338 337 337 338 337 336 337 337 337 337 337 336 336 335 335 334 333 332 332 331 329 328 327 327 327 328
Wind_Speed
27 26 26 28 33 36 35 36 37 39 40 42 44 44 43 41 40 39 39 40 40 40 40 38 37 37 36 35 34 32 31 30 29 28 27 25 23 22 22 21 21 21 20 19 19 17 14 13 15 15 14 13 15 17 16 14 15 15 15 16 20 19 14
27 27 27 28 31 34 36 37 38 40 40 41 44 45 44 43 42 41 41 41 41 41 41 40 39 38 37 36 35 33 32 31 30 29 28 27 25 23 22 22 22 22 21 19 18 16 13 15 18 18 16 15 16 17 17 16 15 15 15 14 17 19 16
30 29 29 29 31 34 37 38 39 41 41 40 42 45 45 45 44 44 43 42 41 41 41 41 40 39 38 37 36 34 33 33 32 30 29 28 27 25 24 23 23 22 21 20 19 17 15 17 19 20 18 17 17 17 17 18 17 15 16 15 14 16 15
35 31 31 31 31 33 37 38 38 40 40 40 40 43 45 46 45 45 44 43 42 42 41 41 40 40 40 39 37 36 35 34 33 32 30 28 27 27 27 27 25 23 22 21 20 20 19 18 19 21 21 20 20 19 18 19 20 17 16 16 15 15 14
40 35 33 31 29 30 33 34 35 36 37 37 38 41 44 45 45 45 44 43 42 42 42 40 40 40 40 40 39 38 37 35 34 33 31 29 28 29 30 29 27 26 25 24 23 23 22 22 23 24 24 24 23 22 21 21 21 19 17 17 16 15 14
41 37 32 28 26 28 31 32 32 33 34 35 36 39 41 42 44 44 43 43 42 41 41 41 40 40 40 41 40 39 38 36 35 33 32 31 29 30 32 31 30 29 28 26 26 27 27 27 27 27 26 25 24 24 24 23 21 20 19 17 17 16 15
40 37 31 28 25 27 30 31 30 31 32 33 34 37 39 40 42 42 41 42 41 41 41 41 40 40 40 41 41 40 39 37 36 35 33 32 32 32 33 32 32 32 30 29 28 29 30 30 29 28 28 27 26 26 25 24 22 22 21 19 17 16 15
37 37 32 31 29 27 28 28 29 30 32 34 35 36 38 39 40 41 41 41 41 40 41 41 41 41 41 41 41 40 39 38 36 36 35 34 34 34 33 34 35 34 32 32 32 32 33 32 30 30 30 29 29 28 26 25 23 23 24 22 18 16 14
34 41 36 35 31 27 28 29 31 34 35 37 38 38 39 39 40 41 41 41 40 40 40 40 40 41 41 41 42 41 39 37 36 36 37 36 36 36 36 36 36 35 34 34 34 34 35 33 31 31 32 32 32 31 28 27 25 24 26 24 20 17 15
32 41 37 35 31 29 30 31 34 37 38 39 42 41 40 40 40 40 41 41 40 40 40 39 38 39 41 42 41 41 39 37 36 37 38 38 38 38 38 38 37 36 35 35 35 36 36 34 33 33 34 35 35 34 32 30 28 26 27 25 22 19 16
32 34 30 30 30 30 31 31 34 39 41 42 45 44 42 42 41 40 41 42 40 40 39 38 38 38 40 42 41 40 40 39 38 39 39 40 40 39 39 38 37 37 37 36 37 37 37 35 35 35 37 38 38 37 34 32 31 28 28 28 25 21 19
32 30 30 33 33 33 32 31 33 37 40 42 45 44 43 43 42 39 40 41 40 39 39 38 38 38 39 40 40 39 40 41 41 41 40 40 40 39 39 37 36 37 39 39 38 38 38 37 37 38 40 41 40 39 37 35 33 30 30 30 28 24 21
27 26 30 33 31 32 33 31 31 34 38 41 43 44 43 43 42 40 39 41 39 38 39 39 39 38 38 39 39 39 40 41 42 42 41 41 40 38 38 37 37 38 40 40 39 38 39 40 39 40 41 42 41 39 38 36 35 32 31 31 29 27 23
22 24 29 30 29 30 30 29 29 33 37 40 40 42 42 42 42 41 39 40 39 37 38 40 40 39 39 38 38 39 41 42 42 42 41 40 39 39 38 38 39 39 39 39 39 38 39 40 40 41 42 43 42 39 38 37 36 34 33 32 30 28 25
19 22 24 26 29 30 29 28 28 30 35 38 38 40 41 40 41 41 40 40 40 38 37 39 41 41 40 40 39 39 40 41 41 41 41 40 39 39 40 40 40 39 38 39 39 38 37 36 37 40 41 41 40 39 38 38 38 37 35 33 32 30 28
24 25 21 23 27 29 27 26 26 27 31 35 36 38 40 41 41 41 41 41 41 40 37 38 41 42 42 42 41 40 39 39 39 39 40 41 41 40 40 41 41 39 38 39 39 38 35 33 33 36 37 37 38 38 38 39 40 39 36 34 34 32 30
23 24 24 26 26 25 25 24 24 28 30 34 36 38 39 41 41 41 40 39 40 41 39 38 41 43 43 43 42 41 40 38 38 38 38 40 41 41 40 40 40 38 38 38 37 36 34 32 32 32 31 32 33 35 37 39 40 39 37 36 36 34 32
26 26 25 29 29 27 26 25 26 29 32 34 36 38 39 40 40 40 40 39 40 41 39 38 40 43 44 43 42 42 41 39 38 38 37 38 39 40 40 39 38 37 35 35 36 36 34 34 33 31 29 28 28 29 33 37 39 39 38 37 36 34 31
27 27 22 23 29 31 27 26 27 29 31 32 34 37 40 40 40 40 40 39 39 39 40 38 39 42 45 43 42 42 41 40 38 37 37 37 37 38 38 38 37 35 34 33 35 35 35 35 34 33 32 31 29 29 30 31 34 36 36 36 35 33 30
24 27 22 18 22 28 27 25 27 28 26 26 29 33 35 37 38 39 38 37 37 38 40 39 38 41 45 45 43 41 40 39 38 37 37 37 37 36 36 34 33 32 32 31 31 32 33 33 34 34 33 32 31 30 29 29 31 31 32 33 34 33 32
22 24 24 22 21 24 26 25 26 27 24 22 24 28 31 33 35 35 35 36 37 38 39 39 38 39 43 45 42 41 40 39 38 38 38 38 37 34 31 28 27 28 28 26 24 24 24 26 28 30 30 30 28 28 29 30 30 29 28 31 34 34 34
29 26 23 23 23 22 25 25 26 27 24 22 24 27 30 32 32 32 33 34 36 37 38 38 38 38 41 43 41 39 39 38 37 38 38 37 33 30 28 26 26 25 23 21 19 19 19 20 21 23 25 24 23 25 29 30 30 30 29 30 33 33 32
34 32 29 31 32 27 28 26 24 25 24 22 24 27 29 31 31 32 33 34 35 37 37 38 38 38 39 39 39 39 40 39 37 37 35 32 29 28 27 23 19 18 17 16 17 17 18 19 20 21 21 20 20 24 29 29 29 30 29 30 32 31 29
34 34 32 34 35 30 30 26 22 23 25 24 24 26 29 31 32 33 34 34 36 37 36 36 38 39 37 37 37 39 39 38 36 34 31 28 27 26 23 18 16 16 17 17 16 15 16 18 20 22 21 19 19 21 24 26 28 29 29 29 30 29 27
35 38 38 38 34 30 30 27 25 25 27 27 26 25 29 32 33 34 36 36 36 37 37 36 37 38 37 36 36 36 35 35 34 32 30 28 26 23 20 19 18 17 17 17 16 14 17 20 22 22 21 19 20 21 21 23 26 27 26 26 26 25 24
24 32 42 43 36 29 28 25 26 28 29 28 25 26 31 35 35 37 39 39 37 38 38 38 38 38 35 34 35 34 32 31 30 28 29 29 27 24 21 19 17 15 14 16 17 17 19 23 23 21 19 18 20 21 22 22 23 24 23 22 22 23 21
25 23 31 37 29 22 23 21 24 28 28 26 25 27 32 35 36 38 40 40 39 38 40 41 40 37 34 33 35 33 29 28 27 27 29 29 26 23 19 16 15 13 13 17 20 19 20 22 22 21 20 17 17 18 18 18 19 19 18 17 18 19 19
18 21 12 21 23 19 19 20 24 26 24 23 26 30 34 36 37 39 40 40 39 38 40 41 39 37 35 34 34 31 28 28 28 27 27 25 23 21 19 17 15 14 16 19 20 19 18 18 19 18 16 14 14 14 14 14 14 14 13 13 14 16 19
16 17 12 9 15 19 22 23 24 23 22 23 27 31 33 35 37 40 40 38 36 36 39 41 40 38 37 36 33 30 30 30 28 25 25 24 22 20 19 18 18 18 20 21 19 17 16 16 16 15 13 11 11 11 11 11 12 11 11 12 13 16 19
12 15 14 8 8 15 21 22 22 22 22 24 28 31 32 34 37 39 37 35 36 37 39 40 40 39 38 35 32 31 31 31 29 26 25 23 21 20 19 19 19 20 20 19 18 16 15 15 15 14 12 11 10 10 10 11 11 11 11 12 14 16 18
4 9 13 12 10 13 16 18 20 22 23 25 28 30 31 34 37 37 34 35 37 39 40 41 40 39 38 36 34 32 31 31 29 27 25 22 22 21 22 22 21 20 20 18 17 16 14 13 13 13 12 11 11 12 13 13 11 11 13 15 15 16 16
4 5 9 13 14 15 16 17 20 23 24 26 28 29 30 35 39 37 35 36 38 39 40 41 40 40 39 38 35 32 31 29 28 27 25 24 23 22 21 22 21 20 19 17 15 13 11 9 10 11 10 10 11 13 14 14 13 13 14 16 16 15 15
7 4 7 12 15 16 19 21 22 25 27 27 27 29 33 36 38 38 37 37 38 39 40 40 41 40 38 36 33 31 29 28 27 27 25 23 21 20 19 19 18 16 16 14 12 12 12 11 12 12 11 12 13 13 13 13 14 15 15 16 16 15 16
13 9 7 10 13 15 19 23 24 25 27 27 27 30 34 36 36 36 33 31 33 37 40 40 39 37 35 33 31 28 28 28 26 24 21 18 17 16 16 14 12 11 12 13 14 14 15 14 13 13 14 15 14 13 13 14 14 14 14 15 16 16 16
22 21 18 17 17 19 22 23 23 23 24 25 26 31 35 35 32 31 28 26 30 37 40 38 35 34 33 30 26 23 25 26 24 21 19 19 18 16 14 13 13 13 15 16 15 15 15 15 14 15 16 15 13 13 14 15 14 13 12 11 13 15 15
24 26 27 27 28 28 28 27 24 23 23 24 26 29 30 30 28 27 28 31 34 38 37 34 32 32 31 28 24 22 22 21 21 21 20 20 20 18 16 17 17 16 16 17 17 16 16 15 17 18 16 15 16 15 14 13 12 11 10 9 9 11 12
24 27 27 27 28 29 29 28 28 26 25 26 27 27 27 26 24 25 28 33 35 34 31 29 29 28 27 26 24 21 19 21 22 21 19 19 21 20 19 20 20 16 16 17 18 19 18 16 18 18 16 16 18 16 14 13 12 11 10 9 8 9 9
23 26 26 25 26 26 25 25 25 25 24 25 25 25 25 23 21 20 24 28 29 27 25 25 25 24 25 24 22 20 20 22 22 20 17 19 23 22 20 21 21 19 18 19 20 20 19 17 17 18 17 16 15 12 12 12 11 10 10 10 9 9 10
Wind_Direction
198 196 200 204 206 207 207 208 207 207 207 207 207 206 204 203 203 202 203 205 206 206 205 205 204 205 209 212 216 216 215 217 218 217 215 215 214 208 208 214 216 217 223 223 220 226 225 206 203 216 225 219 208 213 220 211 205 208 208 197 188 193 205
190 192 199 203 204 207 207 208 209 208 208 207 208 207 204 203 203 203 204 205 206 206 205 205 204 205 208 212 214 215 215 216 217 217 215 215 214 212 211 215 218 218 221 223 222 228 223 200 202 218 226 225 223 223 218 211 215 216 214 211 201 203 207
185 193 197 202 204 206 206 206 209 209 208 207 206 206 206 204 203 203 204 205 205 206 206 205 205 205 207 210 212 214 216 216 216 216 215 215 214 213 213 214 218 219 217 220 223 224 218 205 204 214 225 232 232 229 218 214 222 221 216 218 209 208 212
186 194 195 202 203 203 204 205 210 210 207 206 206 205 206 205 204 204 204 205 205 205 205 205 204 205 206 209 212 213 215 215 215 216 215 215 215 215 216 215 216 217 215 217 222 222 218 216 214 216 224 233 235 232 225 222 228 224 217 218 216 212 213
182 192 194 198 199 200 202 205 209 209 206 206 206 206 207 205 205 205 204 205 206 206 206 204 204 206 206 209 212 213 214 215 214 215 215 215 216 216 217 217 216 216 217 217 219 222 221 222 225 225 226 229 230 230 230 229 230 229 221 216 217 216 213
179 186 188 189 192 196 201 205 209 210 207 206 207 207 205 204 203 203 203 204 205 205 205 204 204 206 207 209 212 213 213 213 213 214 215 215 216 216 216 217 217 219 220 217 218 223 225 227 230 231 231 230 228 228 230 229 229 230 226 218 215 217 215
178 178 179 183 191 195 199 204 208 210 209 207 209 208 203 201 201 200 200 201 202 202 202 203 204 206 207 209 212 212 212 212 212 212 214 216 217 216 216 216 218 221 222 221 222 226 229 232 234 234 235 235 233 231 231 230 228 227 227 222 215 212 213
172 170 179 184 189 193 195 199 201 203 206 208 210 209 203 200 199 198 198 198 198 198 199 200 203 207 208 209 211 212 211 211 211 211 213 216 217 216 216 216 218 222 225 226 228 231 234 237 237 236 236 237 236 236 234 233 230 225 225 226 219 214 214
172 171 184 185 183 185 189 196 201 203 206 209 212 211 205 200 199 198 197 197 196 196 198 198 200 206 209 210 211 212 210 210 211 212 214 216 217 218 220 221 221 223 227 228 229 232 237 239 240 239 237 237 238 238 238 237 233 227 227 229 226 223 223
174 174 184 180 177 184 191 196 202 206 208 209 210 210 206 202 200 199 197 196 196 196 197 196 197 203 209 211 211 210 209 208 210 214 217 217 219 222 224 226 227 228 229 229 228 232 237 240 242 242 239 239 239 239 240 238 235 232 229 231 231 230 230
163 169 176 175 179 188 194 194 197 204 207 207 206 206 205 203 201 199 198 196 196 196 196 196 196 200 208 212 210 208 209 209 210 216 220 220 221 225 227 227 229 231 233 232 230 232 237 240 242 242 241 240 240 241 242 238 237 235 230 231 233 232 231
154 166 170 176 186 191 194 194 195 202 205 206 205 204 204 204 201 201 200 198 196 195 195 196 196 197 203 207 206 206 208 210 212 218 222 222 221 224 227 226 226 229 235 237 235 234 238 241 242 242 242 242 242 243 243 239 238 236 232 231 231 230 230
152 171 176 180 187 189 192 195 200 203 204 205 205 204 205 205 202 202 202 200 197 196 196 197 197 198 200 201 203 205 209 213 216 219 221 222 220 220 223 224 224 228 234 239 240 238 239 241 243 244 243 243 243 243 242 240 239 236 233 232 230 228 228
152 172 181 183 184 185 190 196 201 203 202 204 205 204 205 206 203 204 204 202 199 197 197 198 198 199 200 201 202 204 209 216 220 220 220 221 220 219 221 222 223 226 231 237 240 240 240 241 244 246 245 244 243 242 241 240 238 234 233 232 229 226 226
186 187 176 178 182 185 192 195 199 202 201 203 205 204 204 205 204 205 205 204 201 199 198 199 198 199 200 202 204 206 210 215 219 220 220 219 219 220 221 223 225 225 228 234 239 240 239 238 242 247 248 246 244 242 241 240 237 234 235 234 231 226 224
212 202 183 185 188 189 196 198 197 203 204 203 204 204 204 204 204 205 205 204 203 201 200 200 199 199 200 203 205 207 211 214 216 218 219 218 220 222 223 225 226 225 226 233 238 239 238 234 236 244 249 249 246 242 240 239 236 235 238 238 235 232 229
229 215 197 195 198 196 198 200 200 203 206 206 207 206 205 204 205 204 204 204 203 202 201 201 201 199 200 204 207 208 210 214 215 217 219 219 220 222 223 224 225 224 226 230 234 237 236 232 231 239 246 249 249 246 242 239 238 238 240 240 238 237 233
236 235 209 193 200 204 198 196 200 203 207 209 210 208 207 205 204 203 203 203 204 202 201 201 202 201 200 203 206 208 209 212 215 216 218 219 219 220 222 222 222 223 225 228 232 235 235 232 230 234 240 244 249 248 243 242 242 242 241 240 240 238 229
227 236 222 197 199 202 197 194 198 202 207 211 213 211 208 205 205 203 203 203 203 202 200 201 203 202 200 201 204 206 207 210 213 214 216 217 217 217 220 222 223 223 224 227 233 237 238 237 236 238 241 244 247 246 244 242 242 242 240 240 240 233 221
226 227 228 226 211 197 190 193 197 201 207 210 213 211 206 204 206 206 204 203 203 202 200 200 202 202 199 199 201 203 205 207 208 210 212 213 214 216 221 226 228 227 226 230 236 241 244 245 246 247 249 250 248 246 243 242 241 240 239 240 238 227 216
240 226 221 230 225 199 188 191 194 199 207 210 208 204 201 202 206 205 203 202 201 201 199 199 202 201 198 197 198 201 203 204 205 208 211 213 216 221 225 227 228 228 228 230 236 244 250 250 251 253 255 255 251 246 243 241 240 237 235 236 232 221 213
252 244 235 239 239 216 198 199 200 200 206 209 203 198 199 201 202 201 199 198 199 198 197 199 201 197 193 193 195 197 200 200 201 205 211 214 218 222 225 227 229 229 226 223 227 241 254 258 258 257 256 256 252 245 242 242 241 240 238 234 228 221 217
252 250 248 251 252 231 206 203 205 204 206 207 201 198 198 198 198 198 196 195 195 195 194 197 198 192 188 190 192 195 198 198 198 203 208 211 214 218 222 223 219 213 209 211 218 232 249 259 263 263 259 257 251 244 242 243 243 243 240 232 226 222 221
249 252 252 252 247 221 199 199 204 206 208 208 205 203 198 195 195 196 193 191 190 188 188 193 193 189 187 188 191 197 201 199 200 205 208 208 210 213 212 203 193 192 200 210 217 227 242 250 253 256 256 255 254 248 244 244 245 244 241 233 225 221 223
244 244 246 253 245 213 199 209 214 211 210 206 204 202 198 195 193 192 192 189 185 183 185 188 189 188 187 187 192 199 201 199 202 207 208 205 202 199 193 185 187 198 208 216 220 231 244 245 245 249 253 254 256 254 247 243 243 242 237 229 224 227 234
276 250 234 243 247 218 199 210 212 203 201 201 203 202 196 194 193 191 190 188 182 180 182 185 187 186 184 185 191 194 195 196 199 198 193 190 188 187 187 188 196 208 220 224 223 232 244 243 241 246 254 257 256 253 248 243 240 238 232 227 231 239 239
320 292 231 227 238 212 187 198 202 195 196 202 205 201 194 193 194 191 188 185 180 179 180 182 184 181 178 181 186 186 189 193 190 181 177 179 182 184 187 192 199 209 221 225 226 230 237 240 241 245 252 257 256 252 249 245 242 238 233 233 240 238 225
308 318 259 227 239 225 199 200 199 193 196 200 198 194 192 193 192 187 184 181 179 178 177 177 177 174 173 177 180 181 184 184 179 173 174 177 181 183 187 194 202 211 220 227 232 234 234 241 248 248 248 250 249 247 248 246 240 233 228 231 232 220 210
271 295 295 259 239 218 202 200 196 191 193 196 194 191 189 190 187 182 180 178 176 174 173 172 171 169 170 172 174 176 177 173 169 169 172 176 180 186 194 202 209 216 221 226 233 236 236 243 249 246 242 238 233 233 235 234 231 225 221 221 214 206 209
250 251 252 237 186 179 185 189 187 186 190 191 189 186 187 187 183 178 176 175 172 171 169 167 166 165 165 166 167 168 169 168 169 171 173 178 186 192 200 205 210 215 218 222 228 232 235 241 240 232 225 218 212 213 217 221 223 220 215 212 208 211 222
219 216 218 212 183 168 172 175 177 182 184 184 184 184 184 182 176 170 169 170 168 166 163 161 161 160 161 161 162 164 167 169 172 174 176 183 190 194 200 206 209 212 215 220 227 229 231 233 225 208 200 198 195 200 207 214 218 216 213 212 212 216 221
203 209 208 208 199 183 174 172 175 175 170 171 174 171 168 169 168 163 160 160 160 159 158 158 158 158 161 162 164 166 168 171 175 178 180 186 191 194 201 208 210 213 218 221 221 214 208 201 185 175 177 180 183 194 205 209 209 208 208 207 206 206 207
173 203 207 197 189 177 169 166 161 153 148 150 154 153 153 157 160 157 153 151 154 156 156 157 158 159 162 164 167 170 172 175 180 182 181 185 191 195 201 208 211 213 213 205 187 172 167 165 163 166 173 180 189 201 206 200 197 198 197 198 200 202 204
108 117 146 165 166 159 153 151 147 142 142 144 147 151 154 153 153 152 150 151 157 160 158 158 160 161 162 165 169 173 178 180 180 178 175 174 178 186 195 200 200 196 184 171 163 161 163 165 168 175 181 185 193 199 195 191 195 198 197 198 202 205 208
85 92 95 104 117 123 127 134 137 138 139 141 147 153 153 150 147 148 149 154 162 165 163 161 162 163 164 164 165 168 174 177 174 170 169 167 170 181 187 182 181 180 170 164 164 166 167 172 176 180 185 191 194 193 190 191 196 202 205 205 206 209 214
74 78 80 85 94 101 104 109 115 120 124 131 140 144 141 136 134 139 147 156 162 166 167 164 163 163 162 160 160 164 168 166 160 161 166 169 174 181 179 173 176 179 172 167 169 172 179 189 191 186 186 190 191 191 193 194 196 204 212 209 204 208 217
65 71 75 78 84 89 93 97 102 107 112 119 127 129 126 125 129 140 154 162 165 169 171 167 163 161 157 157 165 169 162 152 153 160 167 171 176 182 181 178 178 178 173 172 176 182 190 197 195 190 188 190 193 196 199 199 200 206 210 209 212 220 227
58 64 67 69 73 80 86 91 96 103 109 113 118 120 120 121 125 137 152 160 165 168 167 163 159 153 151 158 166 161 150 151 157 161 164 171 179 185 187 185 181 178 178 182 186 191 198 203 199 194 193 195 197 201 204 202 202 206 208 214 222 224 222